Year,Month,Day,Hour,Minute,Value (Times are PST for temperature in C)
2008,08,17,00,00,19.80
2008,08,17,00,01,19.70
2008,08,17,00,02,19.70
2008,08,17,00,03,19.60
2008,08,17,00,04,19.60
2008,08,17,00,05,19.50
2008,08,17,00,06,19.40
2008,08,17,00,07,19.40
2008,08,17,00,08,19.30
2008,08,17,00,09,19.30
2008,08,17,00,10,19.20
2008,08,17,00,11,19.20
2008,08,17,00,12,19.10
2008,08,17,00,13,19.10
2008,08,17,00,14,19.10
2008,08,17,00,15,19.10
2008,08,17,00,16,19.10
2008,08,17,00,17,19.10
2008,08,17,00,18,19.10
2008,08,17,00,19,19.10
2008,08,17,00,20,19.10
2008,08,17,00,21,19.10
2008,08,17,00,22,19.10
2008,08,17,00,23,19.00
2008,08,17,00,24,18.90
2008,08,17,00,25,18.90
2008,08,17,00,26,18.90
2008,08,17,00,27,18.90
2008,08,17,00,28,19.10
2008,08,17,00,29,19.00
2008,08,17,00,30,18.90
2008,08,17,00,31,18.90
2008,08,17,00,32,18.90
2008,08,17,00,33,18.90
2008,08,17,00,34,18.90
2008,08,17,00,35,18.90
2008,08,17,00,36,18.90
2008,08,17,00,37,18.90
2008,08,17,00,38,18.90
2008,08,17,00,39,18.90
2008,08,17,00,40,18.90
2008,08,17,00,41,18.90
2008,08,17,00,42,18.90
2008,08,17,00,43,18.90
2008,08,17,00,44,18.90
2008,08,17,00,45,18.90
2008,08,17,00,46,18.90
2008,08,17,00,47,18.90
2008,08,17,00,48,18.90
2008,08,17,00,49,18.90
2008,08,17,00,50,18.90
2008,08,17,00,51,18.90
2008,08,17,00,52,18.90
2008,08,17,00,53,18.90
2008,08,17,00,54,18.90
2008,08,17,00,55,18.90
2008,08,17,00,56,18.90
2008,08,17,00,57,18.90
2008,08,17,00,58,18.90
2008,08,17,00,59,18.90
2008,08,17,01,00,18.90
2008,08,17,01,01,18.90
2008,08,17,01,02,18.90
2008,08,17,01,03,18.90
2008,08,17,01,04,18.90
2008,08,17,01,05,18.90
2008,08,17,01,06,18.90
2008,08,17,01,07,18.90
2008,08,17,01,08,18.90
2008,08,17,01,09,18.80
2008,08,17,01,10,18.80
2008,08,17,01,11,18.80
2008,08,17,01,12,18.70
2008,08,17,01,13,18.70
2008,08,17,01,14,18.60
2008,08,17,01,15,18.60
2008,08,17,01,16,18.50
2008,08,17,01,17,18.30
2008,08,17,01,18,18.20
2008,08,17,01,19,18.20
2008,08,17,01,20,18.00
2008,08,17,01,21,17.90
2008,08,17,01,22,17.90
2008,08,17,01,23,17.80
2008,08,17,01,24,17.70
2008,08,17,01,25,17.60
2008,08,17,01,26,17.50
2008,08,17,01,27,17.50
2008,08,17,01,28,17.40
2008,08,17,01,29,17.40
2008,08,17,01,30,17.30
2008,08,17,01,31,17.30
2008,08,17,01,32,17.30
2008,08,17,01,33,17.30
2008,08,17,01,34,17.30
2008,08,17,01,35,17.30
2008,08,17,01,36,17.30
2008,08,17,01,37,17.30
2008,08,17,01,38,17.30
2008,08,17,01,39,17.30
2008,08,17,01,40,17.30
2008,08,17,01,41,17.30
2008,08,17,01,42,17.40
2008,08,17,01,43,17.40
2008,08,17,01,44,17.50
2008,08,17,01,45,17.50
2008,08,17,01,46,17.50
2008,08,17,01,47,17.60
2008,08,17,01,48,17.60
2008,08,17,01,49,17.70
2008,08,17,01,50,17.70
2008,08,17,01,51,17.80
2008,08,17,01,52,17.80
2008,08,17,01,53,17.80
2008,08,17,01,54,17.80
2008,08,17,01,55,17.80
2008,08,17,01,56,17.80
2008,08,17,01,57,17.80
2008,08,17,01,58,17.80
2008,08,17,01,59,17.80
2008,08,17,02,00,17.80
2008,08,17,02,01,17.80
2008,08,17,02,02,17.80
2008,08,17,02,03,17.90
2008,08,17,02,04,17.90
2008,08,17,02,05,17.90
2008,08,17,02,06,17.80
2008,08,17,02,07,17.80
2008,08,17,02,08,17.80
2008,08,17,02,09,17.80
2008,08,17,02,10,17.80
2008,08,17,02,11,17.80
2008,08,17,02,12,17.80
2008,08,17,02,13,17.80
2008,08,17,02,14,17.80
2008,08,17,02,15,17.80
2008,08,17,02,16,17.80
2008,08,17,02,17,17.80
2008,08,17,02,18,17.80
2008,08,17,02,19,17.80
2008,08,17,02,20,17.80
2008,08,17,02,21,17.70
2008,08,17,02,22,17.70
2008,08,17,02,23,17.70
2008,08,17,02,24,17.70
2008,08,17,02,25,17.70
2008,08,17,02,26,17.70
2008,08,17,02,27,17.70
2008,08,17,02,28,17.70
2008,08,17,02,29,17.70
2008,08,17,02,30,17.70
2008,08,17,02,31,17.70
2008,08,17,02,32,17.70
2008,08,17,02,33,17.70
2008,08,17,02,34,17.70
2008,08,17,02,35,17.70
2008,08,17,02,36,17.70
2008,08,17,02,37,17.60
2008,08,17,02,38,17.60
2008,08,17,02,39,17.60
2008,08,17,02,40,17.60
2008,08,17,02,41,17.60
2008,08,17,02,42,17.50
2008,08,17,02,43,17.50
2008,08,17,02,44,17.50
2008,08,17,02,45,17.50
2008,08,17,02,46,17.50
2008,08,17,02,47,17.40
2008,08,17,02,48,17.40
2008,08,17,02,49,17.40
2008,08,17,02,50,17.40
2008,08,17,02,51,17.40
2008,08,17,02,52,17.30
2008,08,17,02,53,17.30
2008,08,17,02,54,17.30
2008,08,17,02,55,17.30
2008,08,17,02,56,17.30
2008,08,17,02,57,17.30
2008,08,17,02,58,17.30
2008,08,17,02,59,17.30
2008,08,17,03,00,17.30
2008,08,17,03,01,17.20
2008,08,17,03,02,17.20
2008,08,17,03,03,17.20
2008,08,17,03,04,17.20
2008,08,17,03,05,17.20
2008,08,17,03,06,17.20
2008,08,17,03,07,17.20
2008,08,17,03,08,17.20
2008,08,17,03,09,17.20
2008,08,17,03,10,17.20
2008,08,17,03,11,17.20
2008,08,17,03,12,17.20
2008,08,17,03,13,17.20
2008,08,17,03,14,17.20
2008,08,17,03,15,17.20
2008,08,17,03,16,17.20
2008,08,17,03,17,17.20
2008,08,17,03,18,17.20
2008,08,17,03,19,17.20
2008,08,17,03,20,17.20
2008,08,17,03,21,17.20
2008,08,17,03,22,17.20
2008,08,17,03,23,17.20
2008,08,17,03,24,17.20
2008,08,17,03,25,17.20
2008,08,17,03,26,17.20
2008,08,17,03,27,17.20
2008,08,17,03,28,17.20
2008,08,17,03,29,17.20
2008,08,17,03,30,17.20
2008,08,17,03,31,17.20
2008,08,17,03,32,17.20
2008,08,17,03,33,17.20
2008,08,17,03,34,17.20
2008,08,17,03,35,17.20
2008,08,17,03,36,17.20
2008,08,17,03,37,17.20
2008,08,17,03,38,17.10
2008,08,17,03,39,17.10
2008,08,17,03,40,17.10
2008,08,17,03,41,17.00
2008,08,17,03,42,17.00
2008,08,17,03,43,17.00
2008,08,17,03,44,17.00
2008,08,17,03,45,17.00
2008,08,17,03,46,16.90
2008,08,17,03,47,16.90
2008,08,17,03,48,16.90
2008,08,17,03,49,16.90
2008,08,17,03,50,16.90
2008,08,17,03,51,16.90
2008,08,17,03,52,16.90
2008,08,17,03,53,16.90
2008,08,17,03,54,16.90
2008,08,17,03,55,16.90
2008,08,17,03,56,16.90
2008,08,17,03,57,16.90
2008,08,17,03,58,16.90
2008,08,17,03,59,16.90
2008,08,17,04,00,16.90
2008,08,17,04,01,16.90
2008,08,17,04,02,16.90
2008,08,17,04,03,16.90
2008,08,17,04,04,16.90
2008,08,17,04,05,16.90
2008,08,17,04,06,16.90
2008,08,17,04,07,16.90
2008,08,17,04,08,16.90
2008,08,17,04,09,16.80
2008,08,17,04,10,16.80
2008,08,17,04,11,16.80
2008,08,17,04,12,16.80
2008,08,17,04,13,16.80
2008,08,17,04,14,16.80
2008,08,17,04,15,16.80
2008,08,17,04,16,16.80
2008,08,17,04,17,16.80
2008,08,17,04,18,16.80
2008,08,17,04,19,16.80
2008,08,17,04,20,16.90
2008,08,17,04,21,16.90
2008,08,17,04,22,16.90
2008,08,17,04,23,16.90
2008,08,17,04,24,16.90
2008,08,17,04,25,16.90
2008,08,17,04,26,16.90
2008,08,17,04,27,16.90
2008,08,17,04,28,16.90
2008,08,17,04,29,16.90
2008,08,17,04,30,16.80
2008,08,17,04,31,16.80
2008,08,17,04,32,16.80
2008,08,17,04,33,16.80
2008,08,17,04,34,16.80
2008,08,17,04,35,16.70
2008,08,17,04,36,16.70
2008,08,17,04,37,16.70
2008,08,17,04,38,16.70
2008,08,17,04,39,16.70
2008,08,17,04,40,16.70
2008,08,17,04,41,16.70
2008,08,17,04,42,16.70
2008,08,17,04,43,16.70
2008,08,17,04,44,16.70
2008,08,17,04,45,16.70
2008,08,17,04,46,16.70
2008,08,17,04,47,16.70
2008,08,17,04,48,16.60
2008,08,17,04,49,16.60
2008,08,17,04,50,16.60
2008,08,17,04,51,16.60
2008,08,17,04,52,16.60
2008,08,17,04,53,16.50
2008,08,17,04,54,16.40
2008,08,17,04,55,16.40
2008,08,17,04,56,16.40
2008,08,17,04,57,16.40
2008,08,17,04,58,16.40
2008,08,17,04,59,16.40
2008,08,17,05,00,16.40
2008,08,17,05,01,16.40
2008,08,17,05,02,16.30
2008,08,17,05,03,16.30
2008,08,17,05,04,16.30
2008,08,17,05,05,16.40
2008,08,17,05,06,16.50
2008,08,17,05,07,16.60
2008,08,17,05,08,16.70
2008,08,17,05,09,16.70
2008,08,17,05,10,16.70
2008,08,17,05,11,16.70
2008,08,17,05,12,16.80
2008,08,17,05,13,16.80
2008,08,17,05,14,16.80
2008,08,17,05,15,16.80
2008,08,17,05,16,16.80
2008,08,17,05,17,16.80
2008,08,17,05,18,16.80
2008,08,17,05,19,16.80
2008,08,17,05,20,16.80
2008,08,17,05,21,16.80
2008,08,17,05,22,16.80
2008,08,17,05,23,16.80
2008,08,17,05,24,16.80
2008,08,17,05,25,16.80
2008,08,17,05,26,16.80
2008,08,17,05,27,16.80
2008,08,17,05,28,16.90
2008,08,17,05,29,16.90
2008,08,17,05,30,16.90
2008,08,17,05,31,16.90
2008,08,17,05,32,16.90
2008,08,17,05,33,16.90
2008,08,17,05,34,16.90
2008,08,17,05,35,16.80
2008,08,17,05,36,16.80
2008,08,17,05,37,16.80
2008,08,17,05,38,16.80
2008,08,17,05,39,16.90
2008,08,17,05,40,16.90
2008,08,17,05,41,16.90
2008,08,17,05,42,16.90
2008,08,17,05,43,16.90
2008,08,17,05,44,16.90
2008,08,17,05,45,16.90
2008,08,17,05,46,16.90
2008,08,17,05,47,16.90
2008,08,17,05,48,16.90
2008,08,17,05,49,16.90
2008,08,17,05,50,16.90
2008,08,17,05,51,16.90
2008,08,17,05,52,16.90
2008,08,17,05,53,16.90
2008,08,17,05,54,17.00
2008,08,17,05,55,17.00
2008,08,17,05,56,16.90
2008,08,17,05,57,16.90
2008,08,17,05,58,16.90
2008,08,17,05,59,16.90
2008,08,17,06,00,16.80
2008,08,17,06,01,16.80
2008,08,17,06,02,16.80
2008,08,17,06,03,16.80
2008,08,17,06,04,16.80
2008,08,17,06,05,16.80
2008,08,17,06,06,16.80
2008,08,17,06,07,16.80
2008,08,17,06,08,16.80
2008,08,17,06,09,16.80
2008,08,17,06,10,16.80
2008,08,17,06,11,16.80
2008,08,17,06,12,16.80
2008,08,17,06,13,16.90
2008,08,17,06,14,16.90
2008,08,17,06,15,16.90
2008,08,17,06,16,16.90
2008,08,17,06,17,16.80
2008,08,17,06,18,16.80
2008,08,17,06,19,16.80
2008,08,17,06,20,16.70
2008,08,17,06,21,16.50
2008,08,17,06,22,16.40
2008,08,17,06,23,16.30
2008,08,17,06,24,16.20
2008,08,17,06,25,16.10
2008,08,17,06,26,15.90
2008,08,17,06,27,15.80
2008,08,17,06,28,15.70
2008,08,17,06,29,15.60
2008,08,17,06,30,15.50
2008,08,17,06,31,15.50
2008,08,17,06,32,15.30
2008,08,17,06,33,15.20
2008,08,17,06,34,15.10
2008,08,17,06,35,15.00
2008,08,17,06,36,14.90
2008,08,17,06,37,14.80
2008,08,17,06,38,14.80
2008,08,17,06,39,14.70
2008,08,17,06,40,14.60
2008,08,17,06,41,14.50
2008,08,17,06,42,14.40
2008,08,17,06,43,14.30
2008,08,17,06,44,14.20
2008,08,17,06,45,14.20
2008,08,17,06,46,14.10
2008,08,17,06,47,14.10
2008,08,17,06,48,14.00
2008,08,17,06,49,13.90
2008,08,17,06,50,13.90
2008,08,17,06,51,13.90
2008,08,17,06,52,13.80
2008,08,17,06,53,13.80
2008,08,17,06,54,13.70
2008,08,17,06,55,13.70
2008,08,17,06,56,13.70
2008,08,17,06,57,13.70
2008,08,17,06,58,13.70
2008,08,17,06,59,13.70
2008,08,17,07,00,13.70
2008,08,17,07,01,13.70
2008,08,17,07,02,13.60
2008,08,17,07,03,13.60
2008,08,17,07,04,13.60
2008,08,17,07,05,13.60
2008,08,17,07,06,13.60
2008,08,17,07,07,13.50
2008,08,17,07,08,13.50
2008,08,17,07,09,13.50
2008,08,17,07,10,13.50
2008,08,17,07,11,13.40
2008,08,17,07,12,13.40
2008,08,17,07,13,13.40
2008,08,17,07,14,13.40
2008,08,17,07,15,13.40
2008,08,17,07,16,13.40
2008,08,17,07,17,13.40
2008,08,17,07,18,13.50
2008,08,17,07,19,13.50
2008,08,17,07,20,13.50
2008,08,17,07,21,13.50
2008,08,17,07,22,13.50
2008,08,17,07,23,13.60
2008,08,17,07,24,13.60
2008,08,17,07,25,13.70
2008,08,17,07,26,13.70
2008,08,17,07,27,13.70
2008,08,17,07,28,13.80
2008,08,17,07,29,13.80
2008,08,17,07,30,13.90
2008,08,17,07,31,14.00
2008,08,17,07,32,14.00
2008,08,17,07,33,14.00
2008,08,17,07,34,14.00
2008,08,17,07,35,14.10
2008,08,17,07,36,14.10
2008,08,17,07,37,14.20
2008,08,17,07,38,14.20
2008,08,17,07,39,14.20
2008,08,17,07,40,14.20
2008,08,17,07,41,14.20
2008,08,17,07,42,14.20
2008,08,17,07,43,14.20
2008,08,17,07,44,14.20
2008,08,17,07,45,14.20
2008,08,17,07,46,14.00
2008,08,17,07,47,14.00
2008,08,17,07,48,13.90
2008,08,17,07,49,13.90
2008,08,17,07,50,13.80
2008,08,17,07,51,13.80
2008,08,17,07,52,13.70
2008,08,17,07,53,13.70
2008,08,17,07,54,13.70
2008,08,17,07,55,13.70
2008,08,17,07,56,13.60
2008,08,17,07,57,13.60
2008,08,17,07,58,13.60
2008,08,17,07,59,13.60
2008,08,17,08,00,13.60
2008,08,17,08,01,13.60
2008,08,17,08,02,13.70
2008,08,17,08,03,13.70
2008,08,17,08,04,13.90
2008,08,17,08,05,13.90
2008,08,17,08,06,14.00
2008,08,17,08,07,14.10
2008,08,17,08,08,14.20
2008,08,17,08,09,14.20
2008,08,17,08,10,14.30
2008,08,17,08,11,14.30
2008,08,17,08,12,14.40
2008,08,17,08,13,14.50
2008,08,17,08,14,14.50
2008,08,17,08,15,14.60
2008,08,17,08,16,14.70
2008,08,17,08,17,14.80
2008,08,17,08,18,14.90
2008,08,17,08,19,15.00
2008,08,17,08,20,15.10
2008,08,17,08,21,15.20
2008,08,17,08,22,15.20
2008,08,17,08,23,15.30
2008,08,17,08,24,15.50
2008,08,17,08,25,15.60
2008,08,17,08,26,15.80
2008,08,17,08,27,15.90
2008,08,17,08,28,16.00
2008,08,17,08,29,16.10
2008,08,17,08,30,16.20
2008,08,17,08,31,16.20
2008,08,17,08,32,16.30
2008,08,17,08,33,16.30
2008,08,17,08,34,16.40
2008,08,17,08,35,16.50
2008,08,17,08,36,16.70
2008,08,17,08,37,16.80
2008,08,17,08,38,16.90
2008,08,17,08,39,17.00
2008,08,17,08,40,17.20
2008,08,17,08,41,17.30
2008,08,17,08,42,17.40
2008,08,17,08,43,17.50
2008,08,17,08,44,17.60
2008,08,17,08,45,17.70
2008,08,17,08,46,17.80
2008,08,17,08,47,17.90
2008,08,17,08,48,18.00
2008,08,17,08,49,18.20
2008,08,17,08,50,18.30
2008,08,17,08,51,18.40
2008,08,17,08,52,18.60
2008,08,17,08,53,18.70
2008,08,17,08,54,18.90
2008,08,17,08,55,19.00
2008,08,17,08,56,19.10
2008,08,17,08,57,19.20
2008,08,17,08,58,19.40
2008,08,17,08,59,19.50
2008,08,17,09,00,19.70
2008,08,17,09,01,19.80
2008,08,17,09,02,20.00
2008,08,17,09,03,20.10
2008,08,17,09,04,20.20
2008,08,17,09,05,20.30
2008,08,17,09,06,20.30
2008,08,17,09,07,20.30
2008,08,17,09,08,20.40
2008,08,17,09,09,20.40
2008,08,17,09,10,20.40
2008,08,17,09,11,20.50
2008,08,17,09,12,20.60
2008,08,17,09,13,20.60
2008,08,17,09,14,20.60
2008,08,17,09,15,20.60
2008,08,17,09,16,20.50
2008,08,17,09,17,20.50
2008,08,17,09,18,20.50
2008,08,17,09,19,20.50
2008,08,17,09,20,20.40
2008,08,17,09,21,20.40
2008,08,17,09,22,20.30
2008,08,17,09,23,20.30
2008,08,17,09,24,20.20
2008,08,17,09,25,20.20
2008,08,17,09,26,20.20
2008,08,17,09,27,20.20
2008,08,17,09,28,20.30
2008,08,17,09,29,20.30
2008,08,17,09,30,20.40
2008,08,17,09,31,20.50
2008,08,17,09,32,20.50
2008,08,17,09,33,20.60
2008,08,17,09,34,20.60
2008,08,17,09,35,20.70
2008,08,17,09,36,20.80
2008,08,17,09,37,20.90
2008,08,17,09,38,21.00
2008,08,17,09,39,21.00
2008,08,17,09,40,21.00
2008,08,17,09,41,21.00
2008,08,17,09,42,21.00
2008,08,17,09,43,21.10
2008,08,17,09,44,21.10
2008,08,17,09,45,21.30
2008,08,17,09,46,21.30
2008,08,17,09,47,21.30
2008,08,17,09,48,21.40
2008,08,17,09,49,21.50
2008,08,17,09,50,21.60
2008,08,17,09,51,21.60
2008,08,17,09,52,21.70
2008,08,17,09,53,21.70
2008,08,17,09,54,21.80
2008,08,17,09,55,21.90
2008,08,17,09,56,22.00
2008,08,17,09,57,22.10
2008,08,17,09,58,22.20
2008,08,17,09,59,22.40
2008,08,17,10,00,22.40
2008,08,17,10,01,22.40
2008,08,17,10,02,22.40
2008,08,17,10,03,22.50
2008,08,17,10,04,22.50
2008,08,17,10,05,22.50
2008,08,17,10,06,22.50
2008,08,17,10,07,22.60
2008,08,17,10,08,22.70
2008,08,17,10,09,22.80
2008,08,17,10,10,22.90
2008,08,17,10,11,22.90
2008,08,17,10,12,23.00
2008,08,17,10,13,23.10
2008,08,17,10,14,23.20
2008,08,17,10,15,23.30
2008,08,17,10,16,23.40
2008,08,17,10,17,23.60
2008,08,17,10,18,23.70
2008,08,17,10,19,23.70
2008,08,17,10,20,23.70
2008,08,17,10,21,23.70
2008,08,17,10,22,23.70
2008,08,17,10,23,23.60
2008,08,17,10,24,23.40
2008,08,17,10,25,23.10
2008,08,17,10,26,22.90
2008,08,17,10,27,22.80
2008,08,17,10,28,22.80
2008,08,17,10,29,22.70
2008,08,17,10,30,22.60
2008,08,17,10,31,22.60
2008,08,17,10,32,22.60
2008,08,17,10,33,22.50
2008,08,17,10,34,22.50
2008,08,17,10,35,22.50
2008,08,17,10,36,22.40
2008,08,17,10,37,22.40
2008,08,17,10,38,22.30
2008,08,17,10,39,22.30
2008,08,17,10,40,22.30
2008,08,17,10,41,22.20
2008,08,17,10,42,22.20
2008,08,17,10,43,22.20
2008,08,17,10,44,22.10
2008,08,17,10,45,22.00
2008,08,17,10,46,21.80
2008,08,17,10,47,21.80
2008,08,17,10,48,21.70
2008,08,17,10,49,21.70
2008,08,17,10,50,21.80
2008,08,17,10,51,21.80
2008,08,17,10,52,22.00
2008,08,17,10,53,22.10
2008,08,17,10,54,22.30
2008,08,17,10,55,22.50
2008,08,17,10,56,22.50
2008,08,17,10,57,22.60
2008,08,17,10,58,22.50
2008,08,17,10,59,22.50
2008,08,17,11,00,22.50
2008,08,17,11,01,22.60
2008,08,17,11,02,22.60
2008,08,17,11,03,22.70
2008,08,17,11,04,22.80
2008,08,17,11,05,22.90
2008,08,17,11,06,22.90
2008,08,17,11,07,23.10
2008,08,17,11,08,23.20
2008,08,17,11,09,23.30
2008,08,17,11,10,23.40
2008,08,17,11,11,23.40
2008,08,17,11,12,23.60
2008,08,17,11,13,23.70
2008,08,17,11,14,23.80
2008,08,17,11,15,23.80
2008,08,17,11,16,23.80
2008,08,17,11,17,23.80
2008,08,17,11,18,23.80
2008,08,17,11,19,23.80
2008,08,17,11,20,23.80
2008,08,17,11,21,23.80
2008,08,17,11,22,23.80
2008,08,17,11,23,23.80
2008,08,17,11,24,23.80
2008,08,17,11,25,23.80
2008,08,17,11,26,23.80
2008,08,17,11,27,23.70
2008,08,17,11,28,23.60
2008,08,17,11,29,23.40
2008,08,17,11,30,23.30
2008,08,17,11,31,23.30
2008,08,17,11,32,23.30
2008,08,17,11,33,23.30
2008,08,17,11,34,23.30
2008,08,17,11,35,23.30
2008,08,17,11,36,23.30
2008,08,17,11,37,23.40
2008,08,17,11,38,23.30
2008,08,17,11,39,23.20
2008,08,17,11,40,23.00
2008,08,17,11,41,22.90
2008,08,17,11,42,22.80
2008,08,17,11,43,22.70
2008,08,17,11,44,22.60
2008,08,17,11,45,22.60
2008,08,17,11,46,22.60
2008,08,17,11,47,22.80
2008,08,17,11,48,22.90
2008,08,17,11,49,22.90
2008,08,17,11,50,22.80
2008,08,17,11,51,22.80
2008,08,17,11,52,22.90
2008,08,17,11,53,22.90
2008,08,17,11,54,22.90
2008,08,17,11,55,22.90
2008,08,17,11,56,22.90
2008,08,17,11,57,22.90
2008,08,17,11,58,22.90
2008,08,17,11,59,22.80
2008,08,17,12,00,22.80
2008,08,17,12,01,22.80
2008,08,17,12,02,22.80
2008,08,17,12,03,22.90
2008,08,17,12,04,22.90
2008,08,17,12,05,22.90
2008,08,17,12,06,23.00
2008,08,17,12,07,23.10
2008,08,17,12,08,23.20
2008,08,17,12,09,23.20
2008,08,17,12,10,23.20
2008,08,17,12,11,23.20
2008,08,17,12,12,23.30
2008,08,17,12,13,23.40
2008,08,17,12,14,23.50
2008,08,17,12,15,23.70
2008,08,17,12,16,23.70
2008,08,17,12,17,23.70
2008,08,17,12,18,23.80
2008,08,17,12,19,23.90
2008,08,17,12,20,24.10
2008,08,17,12,21,24.20
2008,08,17,12,22,24.20
2008,08,17,12,23,24.20
2008,08,17,12,24,24.30
2008,08,17,12,25,24.30
2008,08,17,12,26,24.40
2008,08,17,12,27,24.40
2008,08,17,12,28,24.40
2008,08,17,12,29,24.50
2008,08,17,12,30,24.70
2008,08,17,12,31,24.80
2008,08,17,12,32,24.90
2008,08,17,12,33,25.00
2008,08,17,12,34,25.10
2008,08,17,12,35,25.10
2008,08,17,12,36,25.10
2008,08,17,12,37,25.10
2008,08,17,12,38,25.10
2008,08,17,12,39,25.20
2008,08,17,12,40,25.20
2008,08,17,12,41,25.20
2008,08,17,12,42,25.20
2008,08,17,12,43,25.30
2008,08,17,12,44,25.30
2008,08,17,12,45,25.20
2008,08,17,12,46,25.10
2008,08,17,12,47,25.00
2008,08,17,12,48,24.80
2008,08,17,12,49,24.70
2008,08,17,12,50,24.50
2008,08,17,12,51,24.30
2008,08,17,12,52,24.20
2008,08,17,12,53,24.10
2008,08,17,12,54,24.10
2008,08,17,12,55,23.90
2008,08,17,12,56,23.80
2008,08,17,12,57,23.70
2008,08,17,12,58,23.70
2008,08,17,12,59,23.70
2008,08,17,13,00,23.80
2008,08,17,13,01,23.80
2008,08,17,13,02,23.80
2008,08,17,13,03,23.80
2008,08,17,13,04,23.90
2008,08,17,13,05,23.90
2008,08,17,13,06,23.90
2008,08,17,13,07,24.00
2008,08,17,13,08,24.00
2008,08,17,13,09,23.90
2008,08,17,13,10,23.80
2008,08,17,13,11,23.70
2008,08,17,13,12,23.70
2008,08,17,13,13,23.70
2008,08,17,13,14,23.70
2008,08,17,13,15,23.70
2008,08,17,13,16,23.60
2008,08,17,13,17,23.50
2008,08,17,13,18,23.40
2008,08,17,13,19,23.40
2008,08,17,13,20,23.40
2008,08,17,13,21,23.30
2008,08,17,13,22,23.10
2008,08,17,13,23,23.00
2008,08,17,13,24,22.90
2008,08,17,13,25,22.90
2008,08,17,13,26,22.90
2008,08,17,13,27,22.90
2008,08,17,13,28,22.90
2008,08,17,13,29,22.90
2008,08,17,13,30,22.90
2008,08,17,13,31,22.90
2008,08,17,13,32,22.70
2008,08,17,13,33,22.60
2008,08,17,13,34,22.50
2008,08,17,13,35,22.40
2008,08,17,13,36,22.30
2008,08,17,13,37,22.20
2008,08,17,13,38,22.10
2008,08,17,13,39,22.10
2008,08,17,13,40,22.20
2008,08,17,13,41,22.20
2008,08,17,13,42,22.20
2008,08,17,13,43,22.20
2008,08,17,13,44,22.20
2008,08,17,13,45,22.20
2008,08,17,13,46,22.20
2008,08,17,13,47,22.20
2008,08,17,13,48,22.30
2008,08,17,13,49,22.20
2008,08,17,13,50,22.20
2008,08,17,13,51,22.20
2008,08,17,13,52,22.20
2008,08,17,13,53,22.20
2008,08,17,13,54,22.20
2008,08,17,13,55,22.10
2008,08,17,13,56,22.00
2008,08,17,13,57,22.00
2008,08,17,13,58,21.90
2008,08,17,13,59,21.90
2008,08,17,14,00,21.90
2008,08,17,14,01,21.90
2008,08,17,14,02,21.90
2008,08,17,14,03,21.90
2008,08,17,14,04,21.80
2008,08,17,14,05,21.90
2008,08,17,14,06,22.00
2008,08,17,14,07,22.00
2008,08,17,14,08,22.10
2008,08,17,14,09,22.20
2008,08,17,14,10,22.20
2008,08,17,14,11,22.30
2008,08,17,14,12,22.30
2008,08,17,14,13,22.30
2008,08,17,14,14,22.30
2008,08,17,14,15,22.40
2008,08,17,14,16,22.40
2008,08,17,14,17,22.50
2008,08,17,14,18,22.50
2008,08,17,14,19,22.60
2008,08,17,14,20,22.70
2008,08,17,14,21,22.80
2008,08,17,14,22,22.90
2008,08,17,14,23,22.90
2008,08,17,14,24,23.10
2008,08,17,14,25,23.20
2008,08,17,14,26,23.30
2008,08,17,14,27,23.30
2008,08,17,14,28,23.40
2008,08,17,14,29,23.50
2008,08,17,14,30,23.60
2008,08,17,14,31,23.70
2008,08,17,14,32,23.70
2008,08,17,14,33,23.70
2008,08,17,14,34,23.70
2008,08,17,14,35,23.70
2008,08,17,14,36,23.70
2008,08,17,14,37,23.70
2008,08,17,14,38,23.70
2008,08,17,14,39,23.70
2008,08,17,14,40,23.70
2008,08,17,14,41,23.70
2008,08,17,14,42,23.70
2008,08,17,14,43,23.60
2008,08,17,14,44,23.60
2008,08,17,14,45,23.60
2008,08,17,14,46,23.60
2008,08,17,14,47,23.60
2008,08,17,14,48,23.60
2008,08,17,14,49,23.60
2008,08,17,14,50,23.60
2008,08,17,14,51,23.70
2008,08,17,14,52,23.70
2008,08,17,14,53,23.70
2008,08,17,14,54,23.70
2008,08,17,14,55,23.80
2008,08,17,14,56,23.80
2008,08,17,14,57,23.80
2008,08,17,14,58,23.80
2008,08,17,14,59,23.90
2008,08,17,15,00,23.90
2008,08,17,15,01,24.00
2008,08,17,15,02,24.10
2008,08,17,15,03,24.10
2008,08,17,15,04,24.10
2008,08,17,15,05,24.10
2008,08,17,15,06,24.00
2008,08,17,15,07,23.90
2008,08,17,15,08,23.80
2008,08,17,15,09,23.80
2008,08,17,15,10,23.70
2008,08,17,15,11,23.70
2008,08,17,15,12,23.50
2008,08,17,15,13,23.40
2008,08,17,15,14,23.20
2008,08,17,15,15,23.00
2008,08,17,15,16,22.90
2008,08,17,15,17,22.80
2008,08,17,15,18,22.80
2008,08,17,15,19,22.70
2008,08,17,15,20,22.60
2008,08,17,15,21,22.60
2008,08,17,15,22,22.60
2008,08,17,15,23,22.50
2008,08,17,15,24,22.50
2008,08,17,15,25,22.50
2008,08,17,15,26,22.50
2008,08,17,15,27,22.50
2008,08,17,15,28,22.50
2008,08,17,15,29,22.50
2008,08,17,15,30,22.50
2008,08,17,15,31,22.50
2008,08,17,15,32,22.50
2008,08,17,15,33,22.50
2008,08,17,15,34,22.50
2008,08,17,15,35,22.50
2008,08,17,15,36,22.40
2008,08,17,15,37,22.40
2008,08,17,15,38,22.40
2008,08,17,15,39,22.40
2008,08,17,15,40,22.40
2008,08,17,15,41,22.40
2008,08,17,15,42,22.40
2008,08,17,15,43,22.40
2008,08,17,15,44,22.40
2008,08,17,15,45,22.40
2008,08,17,15,46,22.40
2008,08,17,15,47,22.40
2008,08,17,15,48,22.40
2008,08,17,15,49,22.50
2008,08,17,15,50,22.50
2008,08,17,15,51,22.60
2008,08,17,15,52,22.70
2008,08,17,15,53,22.70
2008,08,17,15,54,22.80
2008,08,17,15,55,22.90
2008,08,17,15,56,22.90
2008,08,17,15,57,22.90
2008,08,17,15,58,23.00
2008,08,17,15,59,23.10
2008,08,17,16,00,23.20
2008,08,17,16,01,23.20
2008,08,17,16,02,23.20
2008,08,17,16,03,23.30
2008,08,17,16,04,23.30
2008,08,17,16,05,23.20
2008,08,17,16,06,23.20
2008,08,17,16,07,23.20
2008,08,17,16,08,23.20
2008,08,17,16,09,23.10
2008,08,17,16,10,23.00
2008,08,17,16,11,22.90
2008,08,17,16,12,22.90
2008,08,17,16,13,22.90
2008,08,17,16,14,22.90
2008,08,17,16,15,22.90
2008,08,17,16,16,22.90
2008,08,17,16,17,23.00
2008,08,17,16,18,23.10
2008,08,17,16,19,23.10
2008,08,17,16,20,23.10
2008,08,17,16,21,23.20
2008,08,17,16,22,23.20
2008,08,17,16,23,23.20
2008,08,17,16,24,23.20
2008,08,17,16,25,23.20
2008,08,17,16,26,23.20
2008,08,17,16,27,23.20
2008,08,17,16,28,23.20
2008,08,17,16,29,23.20
2008,08,17,16,30,23.20
2008,08,17,16,31,23.30
2008,08,17,16,32,23.20
2008,08,17,16,33,23.20
2008,08,17,16,34,23.20
2008,08,17,16,35,23.20
2008,08,17,16,36,23.10
2008,08,17,16,37,23.10
2008,08,17,16,38,23.00
2008,08,17,16,39,22.90
2008,08,17,16,40,22.90
2008,08,17,16,41,22.70
2008,08,17,16,42,22.60
2008,08,17,16,43,22.60
2008,08,17,16,44,22.50
2008,08,17,16,45,22.50
2008,08,17,16,46,22.50
2008,08,17,16,47,22.50
2008,08,17,16,48,22.40
2008,08,17,16,49,22.40
2008,08,17,16,50,22.40
2008,08,17,16,51,22.40
2008,08,17,16,52,22.40
2008,08,17,16,53,22.40
2008,08,17,16,54,22.40
2008,08,17,16,55,22.40
2008,08,17,16,56,22.50
2008,08,17,16,57,22.50
2008,08,17,16,58,22.50
2008,08,17,16,59,22.50
2008,08,17,17,00,22.60
2008,08,17,17,01,22.60
2008,08,17,17,02,22.70
2008,08,17,17,03,22.70
2008,08,17,17,04,22.70
2008,08,17,17,05,22.70
2008,08,17,17,06,22.80
2008,08,17,17,07,22.80
2008,08,17,17,08,22.80
2008,08,17,17,09,22.80
2008,08,17,17,10,22.80
2008,08,17,17,11,22.80
2008,08,17,17,12,22.80
2008,08,17,17,13,22.80
2008,08,17,17,14,22.80
2008,08,17,17,15,22.70
2008,08,17,17,16,22.70
2008,08,17,17,17,22.60
2008,08,17,17,18,22.50
2008,08,17,17,19,22.30